Everett, WA
on Wednesday, January 23, 2013

Wednesday
Previous Day Next Day
Daily Summary
 ActualAverageRecord
Temperature
Mean Temperature °F / °C °F / °C  
Max Temperature 44°F / 7°C 45°F / 7°C 57°F / 13°C (2005)
Min Temperature 39°F / 4°C 35°F / 1°C 8°F / -13°C (1949)
Degree Days
Heating Degree Days 24    
Moisture
Dew Point 34°F / 1°C   
Average Humidity 78    
Maximum Humidity 93    
Minimum Humidity 45    
Precipitation
Precipitation 0.27 in / 6.86 cm in / cm in / cm ()
Wind
Wind Speed 6 mph / 10 km/h   
Max Wind Speed 13 mph / 21 km/h   
Max Gust Speed 17 mph / 27 km/h   
Visibility 8 miles / 13 kilometers   
Events Rain   
Averages and records for this station are not official NWS values.
Key: T is trace of precipitation, MM is missing value
Source: NWS Daily Summary
Seasonal Weather Averages
Time(PST)TemperatureDew PointHumidity Pressure Visibility Wind DirectionWind SpeedGust SpeedPrecipitationEvents Conditions
12:53 AM 39.0°F / 3.9°C 30.9°F / -0.6°C 73% 29.95 in / 1014.0 hPa 10.0 miles / 16.1 kilometers Calm Calm - N/A   Overcast
1:53 AM 42.1°F / 5.6°C 26.1°F / -3.3°C 53% 29.92 in / 1013.2 hPa 10.0 miles / 16.1 kilometers SE 8.1 mph / 13.0 km/h - N/A   Overcast
2:53 AM 39.0°F / 3.9°C 28.9°F / -1.7°C 67% 29.94 in / 1013.9 hPa 10.0 miles / 16.1 kilometers SW 10.4 mph / 16.7 km/h - N/A   Mostly Cloudy
3:53 AM 39.9°F / 4.4°C 33.1°F / 0.6°C 77% 29.93 in / 1013.4 hPa 9.0 miles / 14.5 kilometers South 3.5 mph / 5.6 km/h - N/A   Overcast
4:53 AM 39.9°F / 4.4°C 32.0°F / 0.0°C 73% 29.92 in / 1013.2 hPa 10.0 miles / 16.1 kilometers East 5.8 mph / 9.3 km/h - N/A   Overcast
5:53 AM 41.0°F / 5.0°C 30.0°F / -1.1°C 65% 29.90 in / 1012.5 hPa 10.0 miles / 16.1 kilometers ESE 9.2 mph / 14.8 km/h - N/A   Overcast
6:53 AM 42.8°F / 6.0°C 24.8°F / -4.0°C 49% 29.89 in / 1012.1 hPa 10.0 miles / 16.1 kilometers SE 5.8 mph / 9.3 km/h - N/A   Overcast
7:53 AM 44.1°F / 6.7°C 24.1°F / -4.4°C 45% 29.88 in / 1011.9 hPa 10.0 miles / 16.1 kilometers Variable 3.5 mph / 5.6 km/h - N/A   Overcast
8:53 AM 42.1°F / 5.6°C 25.0°F / -3.9°C 51% 29.88 in / 1011.8 hPa 10.0 miles / 16.1 kilometers Calm Calm - N/A   Overcast
9:53 AM 43.0°F / 6.1°C 28.0°F / -2.2°C 56% 29.89 in / 1012.1 hPa 10.0 miles / 16.1 kilometers South 4.6 mph / 7.4 km/h - 0.00 in / 0.0 cm Rain Light Rain
10:53 AM 44.1°F / 6.7°C 30.9°F / -0.6°C 60% 29.88 in / 1011.9 hPa 10.0 miles / 16.1 kilometers Variable 4.6 mph / 7.4 km/h - 0.01 in / 0.3 cm Rain Light Rain
11:53 AM 41.0°F / 5.0°C 32.0°F / 0.0°C 70% 29.88 in / 1011.8 hPa 9.0 miles / 14.5 kilometers SSE 12.7 mph / 20.4 km/h 16.1 mph / 25.9 km/h 0.02 in / 0.5 cm Rain Light Rain
12:53 PM 41.0°F / 5.0°C 34.0°F / 1.1°C 76% 29.86 in / 1010.9 hPa 10.0 miles / 16.1 kilometers SSE 5.8 mph / 9.3 km/h - 0.03 in / 0.8 cm Rain Light Rain
1:53 PM 39.9°F / 4.4°C 34.0°F / 1.1°C 79% 29.85 in / 1010.8 hPa 4.0 miles / 6.4 kilometers Variable 5.8 mph / 9.3 km/h - 0.04 in / 1.0 cm Rain Light Rain
2:53 PM 39.9°F / 4.4°C 35.1°F / 1.7°C 83% 29.88 in / 1011.6 hPa 5.0 miles / 8.0 kilometers SSE 10.4 mph / 16.7 km/h 17.3 mph / 27.8 km/h 0.06 in / 1.5 cm Rain Light Rain
3:53 PM 39.9°F / 4.4°C 36.0°F / 2.2°C 86% 29.89 in / 1012.1 hPa 7.0 miles / 11.3 kilometers SSE 12.7 mph / 20.4 km/h - 0.02 in / 0.5 cm Rain Light Rain
4:08 PM 39.2°F / 4.0°C 37.4°F / 3.0°C 93% 29.88 in / 1011.7 hPa 7.0 miles / 11.3 kilometers SSE 11.5 mph / 18.5 km/h - 0.01 in / 0.3 cm Rain Light Rain
4:53 PM 39.9°F / 4.4°C 37.0°F / 2.8°C 89% 29.92 in / 1013.0 hPa 4.0 miles / 6.4 kilometers South 11.5 mph / 18.5 km/h - 0.04 in / 1.0 cm Rain Light Rain
5:38 PM 39.2°F / 4.0°C 37.4°F / 3.0°C 93% 29.93 in / 1013.4 hPa 7.0 miles / 11.3 kilometers SSE 8.1 mph / 13.0 km/h - 0.02 in / 0.5 cm Rain Light Rain
5:53 PM 39.9°F / 4.4°C 37.9°F / 3.3°C 93% 29.95 in / 1014.2 hPa 7.0 miles / 11.3 kilometers South 6.9 mph / 11.1 km/h - 0.02 in / 0.5 cm Rain Light Rain
6:16 PM 39.2°F / 4.0°C 37.4°F / 3.0°C 93% 29.95 in / 1014.1 hPa 6.0 miles / 9.7 kilometers SSW 5.8 mph / 9.3 km/h - 0.01 in / 0.3 cm Rain Light Rain
6:53 PM 41.0°F / 5.0°C 37.9°F / 3.3°C 89% 29.96 in / 1014.5 hPa 7.0 miles / 11.3 kilometers South 8.1 mph / 13.0 km/h - 0.01 in / 0.3 cm Rain Light Rain
7:53 PM 41.0°F / 5.0°C 39.0°F / 3.9°C 93% 30.00 in / 1015.7 hPa 5.0 miles / 8.0 kilometers South 8.1 mph / 13.0 km/h - 0.01 in / 0.3 cm   Overcast
8:53 PM 41.0°F / 5.0°C 39.0°F / 3.9°C 93% 30.04 in / 1017.3 hPa 4.0 miles / 6.4 kilometers South 5.8 mph / 9.3 km/h - 0.00 in / 0.0 cm Rain Light Rain
9:53 PM 41.0°F / 5.0°C 39.0°F / 3.9°C 93% 30.08 in / 1018.4 hPa 5.0 miles / 8.0 kilometers South 9.2 mph / 14.8 km/h - 0.00 in / 0.0 cm Rain Light Rain
10:31 PM 42.8°F / 6.0°C 39.2°F / 4.0°C 87% 30.08 in / 1018.5 hPa 7.0 miles / 11.3 kilometers SSW 6.9 mph / 11.1 km/h - 0.01 in / 0.3 cm Rain Light Rain
10:39 PM 42.8°F / 6.0°C 39.2°F / 4.0°C 87% 30.09 in / 1018.8 hPa 9.0 miles / 14.5 kilometers SSW 5.8 mph / 9.3 km/h - 0.01 in / 0.3 cm Rain Light Rain
10:53 PM 42.1°F / 5.6°C 39.0°F / 3.9°C 89% 30.11 in / 1019.4 hPa 7.0 miles / 11.3 kilometers South 6.9 mph / 11.1 km/h - 0.01 in / 0.3 cm   Overcast
11:20 PM 42.8°F / 6.0°C 39.2°F / 4.0°C 87% 30.11 in / 1019.5 hPa 10.0 miles / 16.1 kilometers SSW 5.8 mph / 9.3 km/h - N/A   Overcast
11:53 PM 41.0°F / 5.0°C 39.0°F / 3.9°C 93% 30.13 in / 1020.3 hPa 10.0 miles / 16.1 kilometers SSW 3.5 mph / 5.6 km/h - N/A   Overcast
Moon Phase
Jan. 23 Jan. 26 Feb. 03 Feb. 10 Feb. 17
Sunrise:07:46 AM (PST) Moon Rise:02:07 PM (PST)1/23
Sunset:04:56 PM (PST) Moon Set:05:06 AM (PST)1/23

Copyright © 2014 The Weather Underground, Inc.